EHI
0 0 0 0 0 0 0 0 0 0 0 0 0 0 0 0 0 0 0 0 0 0 0 0 0 0 0 0 0 0 0 0 0 0 0 0 0 0
0 0 0 0 0 0 0 0 0 0 0 0 0 0 0 0 0 0 0 0 0 0 0 0 0 0 0 0 0 0 0 0 0 0 0 0 0 0
0 0 0 0 0 0 0 0 0 0 0 0 0 0 0 0 0 0 0 0 0 0 0 0 0 0 0 0 0 0 0 0 0 0 0 0 0 0
0 0 0 0 0 0 0 0 0 0 0 0 0 0 0 0 0 0 0 0 0 0 0 0 0 0 0 0 0 0 0 0 0 0 0 0 0 0
0 0 0 0 0 0 0 0 0 0 0 0 0 0 0 0 0 0 0 0 0 0 0 0 0 0 0 0 0 0 0 0 0 0 0 0 0 0
0 0 0 0 0 0 0 0 0 0 0 0 0 0 0 0 0 0 0 0 0 0 0 0 0 0 0 0 0 0 0 0 0 0 0 0 0 0
0 0 0 0 0 0 0 0 0 0 0 0 0 0 0 0 0 0 0 0 0 0 0 0 0 0 0 0 0 0 0 0 0 0 0 0 0 0
0 0 0 0 0 0 0 0 0 0 0 0 0 0 0 0 0 0 0 0 0 0 0 0 0 0 0 0 0 0 0 0 0 0 0 0 0 0
0 0 0 0 0 0 0 0 0 0 0 0 0 0 0 0 0 0 0 0 0 0 0 0 0 0 0 0 0 0 0 0 0 0 0 0 0 0
0 0 0 0 0 0 0 0 0 0 0 0 0 0 0 0 0 0 0 0 0 0 0 0 0 0 0 0 0 0 0 0 0 0 0 0 0 0
0 0 0 0 0 0 0 0 0 0 0 0 0 0 0 0 0 0 0 0 0 0 0 0 0 0 0 0 0 0 0 0 0 0 0 0 0 0
0 0 0 0 0 0 0 0 0 0 0 0 0 0 0 0 0 0 0 0 0 0 0 0 0 0 0 0 0 0 0 0 0 0 0 0 0 0
0 0 0 0 0 0 0 0 0 0 0 0 0 0 0 0 0 0 0 0 0 0 0 0 0 0 0 0 0 0 0 0 0 0 0 0 0 0
0 0 0 0 0 0 0 0 0 0 0 0 0 0 0 0 0 0 0 0 0 0 0 0 0 0 0 0 0 0 0 0 0 0 0 0 0 0
0 0 0 0 0 0 0 0 0 0 0 0 0 0 0 0 0 0 0 0 0 0 0 0 0 0 0 0 0 0 0 0 0 0 0 0 0 0
0 0 0 0 0 0 0 0 0 0 0 0 0 0 0 0 0 0 0 0 0 0 0 0 0 0 0 0 0 0 0 0 0 0 0 0 0 0
0 0 0 0 0 0 0 0 0 0 0 0 0 0 0 0 0 0 0 0 0 0 0 0 0 0 0 0 0 0 0 0 0 0 0 0 0 0
0 0 0 0 0 0 0 0 0 0 0 0 0 0 0 0 0 0 0 0 0 0 0 0 0 0 0 0 0 0 0 0 0 0 0 0 0 0
0 0 0 0 0 0 0 0 0 0 0 0 0 0 0 0 0 0 0 0 0 0 0 0 0 0 0 0 0 0 0 0 0 0 0 0 0 0
0 0 0 0 0 0 0 0 0 0 0 0 0 0 0 0 0 0 0 0 0 0 0 0 0 0 0 0 0 0 0 0 0 0 0 0 0 0
0 0 0 0 0 0 0 0 0 0 0 0 0 0 0 0 0 0 0 0 0 0 0 0 0 0 0 0 0 0 0 0 0 0 0 0 0 0
0 0 0 0 0 0 0 0 0 0 0 0 0 0 0 0 0 0 0 0 0 0 0 0 0 0 0 0 0 0 0 0 0 0 0 0 0 0
0 0 0 0 0 0 0 0 0 0 0 0 0 0 0 0 0 0 0 0 0 0 0 0 0 0 0 0 0 0 0 0 0 0 0 0 0 0
Wind_Speed
4 4 3 2 2 2 2 3 4 3 4 3 2 2 2 2 3 2 2 3 4 4 4 3 3 3 3 4 4 3 3 3 3 4 4 5 6 6
4 4 3 2 2 2 2 2 2 3 3 2 2 1 2 1 2 2 3 2 3 4 4 4 4 4 4 4 4 3 3 3 4 4 5 5 6 7
4 5 4 4 3 2 2 2 2 2 2 2 1 1 2 2 1 2 2 3 3 4 4 4 4 4 4 4 4 4 3 4 4 4 5 6 7 7
6 5 5 4 4 3 3 3 2 2 3 2 2 1 2 3 2 2 2 2 2 4 5 4 4 4 4 4 4 4 4 4 4 5 5 6 7 8
6 6 6 5 5 4 3 3 2 2 2 3 2 2 1 1 1 1 1 2 2 3 4 4 4 4 4 4 4 4 4 4 4 5 5 6 7 8
5 6 6 6 6 5 4 4 3 2 2 2 2 2 1 1 2 2 1 2 2 1 2 3 3 4 4 5 5 5 5 5 5 5 6 6 7 8
5 5 5 6 7 6 5 5 4 3 3 3 2 2 2 2 3 2 2 1 2 1 1 2 2 2 3 4 5 5 5 5 6 6 7 7 7 9
6 5 5 6 7 7 7 7 7 6 5 4 3 4 4 3 3 2 2 1 2 1 1 2 2 3 3 3 5 6 6 6 6 7 7 8 8 9
6 6 5 5 6 5 5 6 6 8 9 6 6 6 5 5 4 3 3 3 3 2 1 3 2 3 3 4 6 6 6 6 6 7 7 8 8 9
6 6 6 5 6 6 5 5 5 5 7 5 5 5 4 4 5 4 4 2 1 2 2 3 2 3 3 3 5 6 6 7 7 7 8 8 8 9
5 5 6 6 8 8 6 6 5 4 5 6 6 5 6 6 5 3 2 2 2 2 2 2 2 3 2 3 4 5 6 7 7 8 8 8 8 8
4 5 6 7 8 9 7 6 6 5 4 3 3 3 4 5 6 5 5 4 2 3 2 2 1 1 2 2 2 2 3 6 8 8 8 8 8 5
4 4 5 8 8 8 7 6 7 5 4 4 3 3 2 3 4 4 4 4 4 4 3 2 2 1 2 3 2 2 2 3 3 5 6 8 8 6
5 4 4 8 8 8 7 7 7 5 3 3 3 4 3 3 3 3 3 3 3 4 4 3 3 3 3 4 4 2 2 3 3 3 3 6 7 9
3 5 6 7 6 6 7 8 6 4 3 3 4 4 3 3 2 1 1 1 1 2 2 3 3 3 3 4 4 3 3 3 3 3 3 4 4 4
3 4 4 5 4 5 5 5 4 4 4 4 3 2 1 2 2 2 2 1 1 2 2 2 3 3 3 4 4 4 4 3 3 3 3 4 4 4
3 2 2 2 2 2 2 3 3 3 3 3 3 2 2 2 2 2 2 2 2 2 2 1 1 1 2 3 4 5 4 4 3 3 3 5 5 4
2 2 2 3 3 3 3 2 2 3 3 3 3 3 3 3 2 2 2 2 3 3 3 2 1 1 2 3 4 5 4 4 3 3 3 4 6 4
2 2 2 2 2 2 2 2 3 3 3 3 3 3 3 3 2 2 2 2 3 3 3 2 2 2 3 5 4 3 3 3 3 3 3 4 6 6
1 2 2 2 2 2 2 2 2 2 3 3 3 3 3 3 3 3 3 3 3 3 3 2 3 3 4 4 4 4 4 4 3 4 4 4 5 7
1 1 1 1 1 1 2 2 2 2 3 3 3 3 3 3 3 3 3 4 4 3 4 4 4 4 2 1 3 4 3 4 5 4 4 4 5 5
0 0 0 1 1 1 1 2 2 2 3 3 3 3 3 3 3 3 3 3 3 3 3 3 2 2 2 3 4 4 5 4 4 6 6 6 4 4
1 1 0 0 0 0 1 1 2 2 2 2 2 2 3 3 2 3 3 3 2 3 2 2 2 2 2 3 4 4 5 5 4 3 4 7 10 12
Wind_Direction
186 187 185 200 195 194 180 171 170 195 223 216 204 206 192 176 176 181 193 210 214 226 234 240 249 247 243 245 262 271 278 280 280 281 281 286 289 293
184 181 190 192 190 185 181 190 181 181 210 209 207 221 190 181 181 193 198 208 208 225 231 234 238 238 240 244 246 256 267 273 275 276 280 285 289 293
188 186 192 183 186 193 190 193 194 175 209 239 222 215 187 181 193 209 205 202 210 227 230 233 236 237 238 235 235 243 257 266 271 275 280 285 288 289
192 189 195 189 189 192 194 199 198 188 187 213 233 233 214 191 187 199 214 221 213 227 229 235 236 241 242 238 239 239 249 260 268 274 280 283 285 286
193 191 194 190 195 194 194 194 195 193 187 192 214 231 221 195 189 218 221 234 238 229 228 234 243 246 246 241 238 242 249 257 265 272 280 286 287 288
197 194 192 194 195 192 193 193 185 180 179 182 197 215 218 209 178 201 247 253 256 244 243 249 243 243 244 243 241 244 247 254 260 268 275 281 286 288
194 195 196 196 199 197 195 185 181 183 186 188 203 212 212 199 202 200 229 265 273 232 242 248 235 233 232 237 242 247 253 260 265 269 272 276 281 284
194 194 196 196 199 203 205 199 193 190 194 199 210 215 221 213 201 197 200 232 257 226 246 266 232 241 239 231 245 251 254 261 266 268 271 276 280 282
192 189 195 200 197 194 202 209 214 217 212 203 205 215 216 207 195 201 212 227 247 225 238 262 242 254 260 256 247 246 252 260 266 270 273 276 280 283
196 193 191 192 198 192 194 203 214 220 220 211 208 216 217 204 202 206 210 227 278 246 204 250 249 264 278 261 250 249 254 261 267 271 274 277 281 285
199 198 193 194 201 199 194 197 211 226 234 227 223 225 223 213 201 179 187 206 253 254 218 222 262 287 273 258 258 258 264 268 271 273 274 276 280 285
197 200 203 204 203 201 198 195 208 215 209 223 230 236 221 209 205 202 199 211 228 245 213 195 232 306 290 262 255 258 263 268 271 273 275 277 282 283
197 199 204 206 208 211 212 207 216 213 203 204 207 213 209 204 208 212 208 208 218 235 207 183 222 236 249 279 277 262 251 268 274 273 274 277 279 277
199 198 200 206 213 218 220 220 218 215 198 197 202 209 211 209 211 213 215 223 236 238 212 200 219 219 237 270 275 271 262 258 262 269 273 278 278 278
197 201 205 210 218 217 220 219 208 196 192 200 209 216 213 202 184 178 201 209 296 284 245 234 231 224 225 247 262 264 278 269 244 255 270 270 269 274
186 187 200 206 222 222 214 210 204 202 199 201 203 204 187 183 192 187 200 196 233 288 299 279 250 232 243 252 252 261 260 259 261 266 275 274 270 262
169 165 174 182 200 208 197 194 192 194 202 185 182 190 200 202 208 193 196 208 226 241 268 296 310 293 268 250 255 256 260 268 266 270 277 281 277 263
154 161 192 197 199 195 187 183 185 191 191 187 191 194 200 205 207 205 208 211 220 232 240 239 232 305 312 294 247 250 260 268 273 270 266 277 284 281
165 180 196 204 202 194 190 189 196 194 188 185 193 196 199 204 206 213 214 219 231 236 239 232 227 233 269 286 282 234 248 268 277 282 273 268 277 284
164 179 198 204 199 197 197 193 191 184 185 189 195 197 201 203 206 212 217 222 233 243 252 249 240 232 239 258 277 287 265 254 263 277 288 286 282 286
188 174 178 197 201 205 206 197 190 191 189 190 198 198 200 204 214 217 217 227 237 238 246 253 249 249 256 269 278 285 285 269 263 265 278 288 295 295
256 191 174 201 197 205 207 192 189 197 195 196 200 199 201 206 211 219 222 224 232 238 253 263 257 249 248 248 261 277 292 301 290 276 263 253 257 266
3 10 30 234 183 174 206 201 200 206 207 204 205 205 205 212 217 220 225 228 231 236 247 258 266 267 263 253 260 273 282 293 301 299 283 269 268 273